Location: Kumla
(59.1265°N, 15.1401°E)
Time: 13:42:24
(UTC+01:00)

Tiros 1 despin weight - Pass Details

Date: 05 December 2023
Orbit: 581 x 624 km, 48.2° (Epoch: 27 February)

Event Time Altitude Azimuth Distance (km) Brightness Sun altitude
Rises 18:24:40 0° 207° (SSW) 2,796 ? -23.5°
Reaches altitude 10° 18:28:20 10° 175° (S) 1,895 ? -24.0°
Enters shadow 18:28:25 10° 174° (S) 1,885 ? -24.0°
